SCP
0 0 0 0 0 0 0 0 0 0 0 0 0 0 0 0 0 0 0 0 0 0 0 0 0 0 0 0 0 0 0 0 0 0 0 0 0 0 1 1 1 0 1
0 0 0 0 0 0 0 0 0 0 0 0 0 1 0 0 0 0 0 0 0 0 0 0 0 0 0 0 0 -0 -0 0 -0 0 0 0 0 0 0 1 1 0 0
0 0 0 0 0 0 0 0 0 0 0 0 0 0 0 0 0 0 0 0 0 0 0 0 0 0 0 0 -0 0 -0 -0 -0 0 0 0 0 0 0 0 0 0 0
0 0 0 0 0 0 0 0 0 0 0 0 0 0 0 0 0 0 0 0 0 0 0 0 0 0 0 -0 0 0 0 -0 -0 0 0 0 0 0 0 0 0 0 0
0 0 0 -0 0 0 0 0 0 0 0 0 0 0 0 0 0 0 0 0 0 0 0 0 0 0 -0 0 -0 0 0 0 0 0 0 0 0 0 0 0 0 0 0
0 0 0 0 0 0 0 0 0 0 0 0 0 0 0 0 0 0 0 0 0 0 0 0 -0 -0 0 0 0 0 0 0 0 0 -0 0 0 0 0 0 0 0 0
0 -0 -0 -0 -0 -0 0 0 0 0 0 0 0 0 0 0 0 0 0 0 0 0 -0 -0 -0 0 0 0 0 0 -0 -0 0 -0 0 0 0 0 0 0 0 0 0
0 -0 -0 -0 -0 -0 0 0 0 0 0 0 0 0 0 0 0 0 0 0 0 -0 0 0 0 0 0 0 0 -0 -0 0 0 -0 -0 -0 0 0 0 0 0 0 0
0 -0 -0 -0 -0 -0 -0 -0 0 0 0 0 0 0 0 0 0 0 0 0 -0 -0 0 0 0 0 0 0 0 -0 -0 0 0 0 0 -0 -0 0 0 0 0 0 0
0 -0 -0 -0 -0 -0 -0 -0 0 0 0 0 0 0 0 0 0 0 -0 0 -0 -0 -0 -0 0 0 0 0 0 0 0 0 0 -0 -0 -0 0 0 0 0 0 0 0
-0 -0 -0 -0 -0 -0 -0 -0 0 0 0 0 0 0 0 0 0 0 -0 -0 -0 0 -0 0 0 0 0 0 0 0 0 0 -0 -0 -0 -0 0 0 -0 0 0 -0 0
-0 -0 -0 -0 -0 -0 -0 -0 0 0 0 0 0 0 0 0 0 0 -0 -0 -0 -0 -0 0 0 0 0 0 0 0 0 0 0 0 0 0 0 0 0 0 0 0 0
-0 -0 -0 -0 -0 -0 -0 -0 0 0 0 0 0 0 0 0 0 0 -0 0 -0 -0 -0 -0 -0 -0 0 0 0 0 0 0 0 0 -0 0 0 0 0 -0 0 0 0
-0 -0 -0 -0 -0 -0 -0 -0 -0 0 0 0 0 0 0 0 0 0 0 -0 0 -0 -0 0 0 0 0 0 0 0 0 0 0 0 0 -0 0 0 0 0 0 -0 0
-0 -0 -0 -0 -0 -0 -0 -0 -0 -0 -0 0 0 0 0 0 0 0 0 -0 -0 -0 0 -0 0 -0 0 0 0 0 0 0 0 0 0 0 0 0 0 0 0 0 0
-0 -0 -0 -0 -0 -0 -0 -0 -0 -0 -0 -0 0 0 0 0 0 0 0 0 -0 -0 -0 -0 0 -0 0 0 0 0 0 0 0 0 0 0 -0 0 -0 -0 -0 -0 0
-0 -0 -0 -0 -0 -0 -0 -0 -0 -0 -0 -0 0 0 0 0 0 0 0 0 0 0 -0 -0 0 0 0 0 0 0 0 0 0 0 0 0 0 0 0 -0 -0 -0 -0
-0 -0 -0 -0 -0 -0 -0 -0 -0 -0 -0 -0 0 0 0 0 0 0 0 0 0 0 0 0 -0 0 -0 -0 0 0 0 0 0 0 0 0 0 0 0 -0 -0 -0 0
-0 -0 -0 -0 -0 -0 -0 -0 -0 -0 -0 -0 -0 -0 0 0 0 0 0 0 0 0 0 0 -0 -0 0 0 0 0 0 -0 0 0 0 0 0 0 0 0 0 0 0
-0 -0 -0 -0 -0 -0 -0 -0 -0 -0 -0 -0 -0 -0 -0 0 0 0 0 0 0 0 0 0 -0 -0 -0 -0 -0 0 -0 -0 0 0 0 0 0 0 0 0 -0 0 0
0 -0 -0 -0 -0 -0 -0 -0 -0 -0 -0 -0 -0 -0 -0 -0 -0 0 0 0 0 0 0 0 0 0 -0 -0 -0 -0 -0 -0 0 0 0 0 0 0 0 0 0 0 0
-0 -0 -0 -0 -0 -0 -0 -0 -0 -0 -0 -0 -0 -0 -0 -0 -0 -0 0 0 0 0 0 0 0 0 0 0 0 0 -0 0 0 0 0 0 0 -0 -0 0 -0 -0 -0
0 -0 -0 -0 -0 -0 -0 -0 -0 -0 -0 -0 -0 -0 -0 -0 -0 -0 0 0 0 0 0 0 0 0 0 0 -0 -0 -0 -0 -0 -0 -0 -0 -0 0 0 0 0 0 -0
0 0 -0 -0 -0 -0 -0 -0 -0 -0 -0 -0 -0 -0 -0 -0 -0 -0 0 0 0 0 0 0 0 0 0 0 -0 -0 -0 -0 -0 -0 -0 -0 -0 0 0 0 -0 0 -0
0 0 0 -0 -0 -0 -0 -0 -0 -0 -0 -0 -0 -0 -0 -0 -0 -0 0 -0 0 0 0 0 0 0 -0 -0 -0 0 0 -0 -0 -0 -0 -0 -0 -0 -0 0 0 0 0
0 0 0 0 -0 -0 -0 -0 -0 -0 -0 -0 -0 -0 -0 -0 -0 0 0 -0 -0 0 0 0 0 -0 -0 0 0 0 0 0 -0 0 0 0 0 0 0 0 0 0 -0
Wind_Speed_500mb
66 57 39 31 33 41 50 58 64 54 45 39 29 25 22 22 25 25 26 27 27 34 26 22 24 28 28 26 25 26 28 26 28 27 20 19 19 16 21 21 22 22 22
51 40 29 25 29 36 50 60 59 48 37 29 22 20 18 21 22 23 22 20 26 18 12 18 19 20 21 23 22 26 29 26 33 26 21 18 17 20 25 20 20 19 21
31 24 21 19 27 40 55 61 51 38 30 24 21 16 16 19 16 13 13 15 12 6 7 11 13 17 18 18 23 28 25 27 34 27 19 13 12 20 21 19 15 22 20
15 15 16 21 29 45 59 53 42 32 27 24 17 12 14 7 6 10 10 10 8 9 9 8 9 12 16 19 24 24 21 22 33 33 24 16 17 18 17 16 11 15 17
14 10 14 22 40 59 58 45 35 30 27 20 13 9 4 2 7 9 11 10 10 12 10 11 8 11 17 20 26 22 20 20 24 26 23 16 11 18 20 18 18 12 14
4 14 24 39 59 61 52 42 34 29 25 18 10 5 5 2 9 11 9 10 12 14 13 12 11 13 17 24 27 23 19 18 19 17 13 15 10 9 16 24 26 26 19
13 27 43 57 67 60 49 40 32 27 24 18 8 7 1 5 10 11 8 3 7 11 15 13 14 14 18 26 27 24 16 13 15 16 13 12 14 12 22 33 39 33 28
23 35 51 58 63 56 46 37 29 27 24 15 9 6 3 6 9 7 4 3 5 8 12 16 15 14 20 27 29 23 16 17 18 15 10 12 18 20 28 35 45 40 23
33 43 53 62 60 53 43 32 29 27 25 13 8 3 3 5 6 5 4 7 6 7 14 20 17 16 20 26 30 24 18 20 15 13 15 13 17 29 17 15 39 20 23
38 46 54 63 57 48 39 30 27 24 23 12 8 7 3 6 3 4 5 6 7 8 18 21 19 19 22 25 27 26 25 20 17 14 15 18 23 26 18 11 18 29 37
46 51 55 61 55 47 41 33 32 27 22 14 9 7 3 7 5 8 10 7 10 10 16 21 22 20 21 23 24 25 26 21 20 19 16 22 21 20 28 19 28 24 18
45 50 57 63 56 50 44 36 34 27 21 16 12 8 6 9 10 12 10 10 12 14 17 22 23 23 23 22 22 22 22 23 22 22 21 18 19 26 22 17 20 15 20
44 48 55 61 58 53 46 38 33 29 23 17 15 11 10 14 14 13 12 13 12 14 17 19 23 24 22 21 19 18 18 24 24 22 24 25 20 21 17 18 19 18 19
48 50 55 58 57 54 47 38 34 32 26 19 19 16 13 16 17 19 14 13 15 15 17 20 24 24 23 21 19 24 28 26 23 23 21 22 18 18 21 21 22 22 25
47 53 59 58 58 56 48 39 34 36 30 22 22 20 19 15 18 20 20 13 15 17 18 20 24 25 22 22 20 25 23 23 24 25 26 25 23 24 21 22 23 29 37
49 52 58 63 62 58 51 44 38 39 34 26 24 22 21 19 16 15 13 15 13 18 18 20 23 27 26 22 22 27 23 15 15 24 32 32 29 27 23 22 20 26 31
53 60 69 72 68 58 52 49 42 41 38 30 27 24 23 22 18 14 13 12 12 18 15 16 21 26 27 27 29 25 21 17 21 28 33 31 30 28 19 28 32 35 40
58 55 64 70 69 55 49 47 46 44 42 37 30 26 27 26 22 19 16 14 17 19 11 13 21 25 28 29 28 19 18 24 26 25 32 36 41 32 45 48 42 48 48
65 60 64 68 71 62 54 52 50 46 45 42 35 30 33 31 27 21 18 17 16 15 13 12 16 35 31 32 31 27 29 31 31 40 43 38 41 55 47 46 39 47 48
57 60 61 67 70 65 60 56 55 51 50 45 41 34 35 33 29 25 20 20 20 19 19 23 31 37 32 36 32 30 31 46 44 46 46 41 41 43 40 35 37 45 46
66 62 61 66 70 69 66 62 59 58 50 46 44 39 33 36 31 30 24 20 23 20 22 25 31 31 32 35 38 31 33 43 44 37 42 44 36 29 35 38 37 39 47
63 67 62 67 69 70 70 67 62 54 52 49 47 45 37 38 37 35 31 24 21 22 22 23 28 29 30 35 43 45 33 30 33 40 38 33 34 36 38 36 38 36 35
68 66 68 70 72 75 74 69 60 58 54 54 50 48 43 38 41 41 37 32 25 23 24 23 24 26 27 29 33 41 40 35 35 42 35 33 34 36 36 36 34 31 28
63 67 66 73 78 80 79 62 61 62 58 58 54 52 50 45 45 43 39 37 34 29 28 27 24 26 29 31 34 39 44 42 39 38 32 29 31 33 32 29 28 25 25
59 71 72 75 80 82 83 78 69 68 66 61 59 56 54 50 46 48 45 44 39 34 31 32 31 32 31 29 31 37 43 42 39 37 35 34 32 31 31 29 28 28 27
57 69 73 74 78 79 82 83 78 74 71 68 64 62 60 57 51 50 50 45 42 35 29 25 27 30 29 31 31 33 36 35 33 34 35 36 35 34 32 30 31 32 31
Wind_Direction_500mb
289 295 278 267 259 241 223 214 200 192 201 219 230 239 251 268 280 273 274 277 276 288 278 248 228 228 235 239 246 243 209 199 187 183 187 185 191 215 206 204 207 216 214
289 282 273 257 237 226 212 193 185 191 203 214 220 230 252 273 281 278 281 278 288 287 253 215 216 224 230 233 233 193 186 191 184 184 162 171 187 197 197 197 207 208 203
279 262 257 236 217 203 188 177 179 189 201 203 211 231 270 289 286 278 279 286 285 268 200 196 219 233 227 219 200 188 193 189 184 180 170 162 186 173 186 190 203 196 187
295 263 234 214 195 180 173 172 178 188 193 199 209 246 282 282 277 287 277 278 273 231 221 209 228 219 198 193 187 187 186 187 183 178 187 189 184 180 168 183 193 184 185
293 247 202 182 168 168 167 170 177 183 191 194 208 257 232 267 330 311 282 270 258 233 222 202 217 193 187 182 182 182 175 173 187 188 200 200 189 192 168 154 169 176 186
252 168 160 160 160 163 166 172 176 182 185 189 202 197 197 336 334 321 294 286 250 226 210 201 203 183 182 179 172 176 183 191 203 201 212 208 199 195 172 161 161 177 181
175 161 158 159 163 166 170 172 177 181 180 178 187 185 165 338 327 331 312 276 210 205 206 195 194 187 179 177 173 169 168 186 187 184 188 195 220 223 187 164 164 166 149
173 165 161 164 167 170 172 173 175 177 172 172 180 172 6 334 339 347 13 127 159 175 187 180 178 176 172 176 173 176 164 158 162 164 190 211 206 160 187 172 172 162 133
168 165 166 167 172 174 173 174 169 170 169 169 163 123 43 347 356 24 105 124 113 131 165 167 167 165 165 170 178 173 171 166 162 143 131 137 154 177 162 160 174 180 155
166 168 171 172 177 176 172 169 168 167 169 166 142 125 56 7 13 73 102 126 104 117 159 157 154 158 160 163 166 165 169 171 165 145 126 148 151 148 144 95 155 181 179
172 171 173 175 179 177 173 172 170 167 169 168 146 130 66 27 83 101 89 114 110 126 155 158 152 154 159 162 161 160 166 163 157 145 145 137 144 159 149 150 174 190 192
168 171 173 177 182 180 177 177 174 169 171 176 162 142 83 43 122 122 92 95 119 132 140 164 166 161 159 155 160 165 167 169 165 155 157 165 147 143 157 128 145 153 164
163 170 174 181 184 183 182 180 176 172 179 183 174 157 110 76 106 119 106 107 115 128 137 150 163 165 165 160 156 162 166 161 161 161 173 160 158 172 164 151 152 159 173
168 172 177 183 187 186 183 181 178 180 189 187 180 167 144 99 98 105 105 108 124 122 130 143 154 159 158 157 153 151 151 147 155 169 169 163 165 165 164 157 155 164 159
174 179 181 185 189 189 185 184 183 186 190 188 182 176 164 133 111 107 85 100 119 127 127 146 146 146 149 145 145 152 158 149 147 148 145 149 154 155 159 156 160 160 158
182 183 186 189 191 190 187 188 188 189 191 188 184 182 170 157 128 124 104 85 114 127 132 134 145 141 141 132 134 139 139 143 161 155 147 148 149 150 156 169 167 164 180
186 189 191 192 193 189 189 191 191 189 192 189 187 185 177 164 150 136 121 109 119 138 125 149 150 151 139 139 137 124 117 115 122 134 134 133 141 141 143 144 135 138 160
194 193 192 194 196 189 188 192 194 189 193 194 192 187 181 169 159 145 127 118 117 139 99 141 160 170 148 144 153 144 119 123 118 128 133 144 150 133 129 128 125 122 130
199 205 199 196 195 191 188 191 196 191 195 198 196 191 183 175 168 156 140 128 123 132 126 100 161 168 148 154 145 140 131 130 138 143 136 124 128 144 133 129 126 129 132
208 204 197 194 195 191 191 191 197 195 196 198 199 196 188 183 176 170 155 141 132 120 123 96 120 149 147 151 151 145 136 137 130 129 129 126 123 132 128 131 137 140 142
207 203 196 195 193 191 191 193 198 201 194 196 200 200 195 189 183 176 168 155 148 135 121 124 122 145 158 153 159 154 145 146 142 132 143 134 135 140 136 133 134 140 140
204 206 196 194 192 192 193 196 201 198 195 195 200 202 200 193 188 183 175 169 162 157 140 131 137 138 143 166 167 171 162 160 152 151 143 138 141 141 141 139 141 147 155
200 202 198 193 193 194 195 199 202 196 195 197 199 204 201 200 194 191 187 182 176 176 168 154 146 149 154 149 160 185 187 181 175 166 159 154 152 151 153 155 156 154 152
210 200 196 197 196 197 197 200 201 196 194 196 199 203 204 201 198 198 199 197 192 186 185 176 169 162 155 158 160 160 161 168 177 175 177 176 170 170 173 178 180 179 180
215 207 205 202 201 199 199 199 200 199 197 196 198 202 204 204 203 203 204 207 207 202 192 191 187 182 176 168 166 168 167 169 175 182 188 189 186 185 188 192 196 197 188
217 213 211 205 204 202 202 201 203 201 201 197 198 202 203 203 206 206 207 209 208 204 200 199 199 193 189 187 181 177 182 189 194 197 202 204 204 203 203 206 207 205 201
Wind_Speed_850mb
66 57 39 31 33 41 50 58 64 54 45 39 29 25 22 22 25 25 26 27 27 34 26 22 24 28 28 26 25 26 28 26 28 27 20 19 19 16 21 21 22 22 22
51 40 29 25 29 36 50 60 59 48 37 29 22 20 18 21 22 23 22 20 26 18 12 18 19 20 21 23 22 26 29 26 33 26 21 18 17 20 25 20 20 19 21
31 24 21 19 27 40 55 61 51 38 30 24 21 16 16 19 16 13 13 15 12 6 7 11 13 17 18 18 23 28 25 27 34 27 19 13 12 20 21 19 15 22 20
15 15 16 21 29 45 59 53 42 32 27 24 17 12 14 7 6 10 10 10 8 9 9 8 9 12 16 19 24 24 21 22 33 33 24 16 17 18 17 16 11 15 17
14 10 14 22 40 59 58 45 35 30 27 20 13 9 4 2 7 9 11 10 10 12 10 11 8 11 17 20 26 22 20 20 24 26 23 16 11 18 20 18 18 12 14
4 14 24 39 59 61 52 42 34 29 25 18 10 5 5 2 9 11 9 10 12 14 13 12 11 13 17 24 27 23 19 18 19 17 13 15 10 9 16 24 26 26 19
13 27 43 57 67 60 49 40 32 27 24 18 8 7 1 5 10 11 8 3 7 11 15 13 14 14 18 26 27 24 16 13 15 16 13 12 14 12 22 33 39 33 28
23 35 51 58 63 56 46 37 29 27 24 15 9 6 3 6 9 7 4 3 5 8 12 16 15 14 20 27 29 23 16 17 18 15 10 12 18 20 28 35 45 40 23
33 43 53 62 60 53 43 32 29 27 25 13 8 3 3 5 6 5 4 7 6 7 14 20 17 16 20 26 30 24 18 20 15 13 15 13 17 29 17 15 39 20 23
38 46 54 63 57 48 39 30 27 24 23 12 8 7 3 6 3 4 5 6 7 8 18 21 19 19 22 25 27 26 25 20 17 14 15 18 23 26 18 11 18 29 37
46 51 55 61 55 47 41 33 32 27 22 14 9 7 3 7 5 8 10 7 10 10 16 21 22 20 21 23 24 25 26 21 20 19 16 22 21 20 28 19 28 24 18
45 50 57 63 56 50 44 36 34 27 21 16 12 8 6 9 10 12 10 10 12 14 17 22 23 23 23 22 22 22 22 23 22 22 21 18 19 26 22 17 20 15 20
44 48 55 61 58 53 46 38 33 29 23 17 15 11 10 14 14 13 12 13 12 14 17 19 23 24 22 21 19 18 18 24 24 22 24 25 20 21 17 18 19 18 19
48 50 55 58 57 54 47 38 34 32 26 19 19 16 13 16 17 19 14 13 15 15 17 20 24 24 23 21 19 24 28 26 23 23 21 22 18 18 21 21 22 22 25
47 53 59 58 58 56 48 39 34 36 30 22 22 20 19 15 18 20 20 13 15 17 18 20 24 25 22 22 20 25 23 23 24 25 26 25 23 24 21 22 23 29 37
49 52 58 63 62 58 51 44 38 39 34 26 24 22 21 19 16 15 13 15 13 18 18 20 23 27 26 22 22 27 23 15 15 24 32 32 29 27 23 22 20 26 31
53 60 69 72 68 58 52 49 42 41 38 30 27 24 23 22 18 14 13 12 12 18 15 16 21 26 27 27 29 25 21 17 21 28 33 31 30 28 19 28 32 35 40
58 55 64 70 69 55 49 47 46 44 42 37 30 26 27 26 22 19 16 14 17 19 11 13 21 25 28 29 28 19 18 24 26 25 32 36 41 32 45 48 42 48 48
65 60 64 68 71 62 54 52 50 46 45 42 35 30 33 31 27 21 18 17 16 15 13 12 16 35 31 32 31 27 29 31 31 40 43 38 41 55 47 46 39 47 48
57 60 61 67 70 65 60 56 55 51 50 45 41 34 35 33 29 25 20 20 20 19 19 23 31 37 32 36 32 30 31 46 44 46 46 41 41 43 40 35 37 45 46
66 62 61 66 70 69 66 62 59 58 50 46 44 39 33 36 31 30 24 20 23 20 22 25 31 31 32 35 38 31 33 43 44 37 42 44 36 29 35 38 37 39 47
63 67 62 67 69 70 70 67 62 54 52 49 47 45 37 38 37 35 31 24 21 22 22 23 28 29 30 35 43 45 33 30 33 40 38 33 34 36 38 36 38 36 35
68 66 68 70 72 75 74 69 60 58 54 54 50 48 43 38 41 41 37 32 25 23 24 23 24 26 27 29 33 41 40 35 35 42 35 33 34 36 36 36 34 31 28
63 67 66 73 78 80 79 62 61 62 58 58 54 52 50 45 45 43 39 37 34 29 28 27 24 26 29 31 34 39 44 42 39 38 32 29 31 33 32 29 28 25 25
59 71 72 75 80 82 83 78 69 68 66 61 59 56 54 50 46 48 45 44 39 34 31 32 31 32 31 29 31 37 43 42 39 37 35 34 32 31 31 29 28 28 27
57 69 73 74 78 79 82 83 78 74 71 68 64 62 60 57 51 50 50 45 42 35 29 25 27 30 29 31 31 33 36 35 33 34 35 36 35 34 32 30 31 32 31
Wind_Direction_850mb
289 295 278 267 259 241 223 214 200 192 201 219 230 239 251 268 280 273 274 277 276 288 278 248 228 228 235 239 246 243 209 199 187 183 187 185 191 215 206 204 207 216 214
289 282 273 257 237 226 212 193 185 191 203 214 220 230 252 273 281 278 281 278 288 287 253 215 216 224 230 233 233 193 186 191 184 184 162 171 187 197 197 197 207 208 203
279 262 257 236 217 203 188 177 179 189 201 203 211 231 270 289 286 278 279 286 285 268 200 196 219 233 227 219 200 188 193 189 184 180 170 162 186 173 186 190 203 196 187
295 263 234 214 195 180 173 172 178 188 193 199 209 246 282 282 277 287 277 278 273 231 221 209 228 219 198 193 187 187 186 187 183 178 187 189 184 180 168 183 193 184 185
293 247 202 182 168 168 167 170 177 183 191 194 208 257 232 267 330 311 282 270 258 233 222 202 217 193 187 182 182 182 175 173 187 188 200 200 189 192 168 154 169 176 186
252 168 160 160 160 163 166 172 176 182 185 189 202 197 197 336 334 321 294 286 250 226 210 201 203 183 182 179 172 176 183 191 203 201 212 208 199 195 172 161 161 177 181
175 161 158 159 163 166 170 172 177 181 180 178 187 185 165 338 327 331 312 276 210 205 206 195 194 187 179 177 173 169 168 186 187 184 188 195 220 223 187 164 164 166 149
173 165 161 164 167 170 172 173 175 177 172 172 180 172 6 334 339 347 13 127 159 175 187 180 178 176 172 176 173 176 164 158 162 164 190 211 206 160 187 172 172 162 133
168 165 166 167 172 174 173 174 169 170 169 169 163 123 43 347 356 24 105 124 113 131 165 167 167 165 165 170 178 173 171 166 162 143 131 137 154 177 162 160 174 180 155
166 168 171 172 177 176 172 169 168 167 169 166 142 125 56 7 13 73 102 126 104 117 159 157 154 158 160 163 166 165 169 171 165 145 126 148 151 148 144 95 155 181 179
172 171 173 175 179 177 173 172 170 167 169 168 146 130 66 27 83 101 89 114 110 126 155 158 152 154 159 162 161 160 166 163 157 145 145 137 144 159 149 150 174 190 192
168 171 173 177 182 180 177 177 174 169 171 176 162 142 83 43 122 122 92 95 119 132 140 164 166 161 159 155 160 165 167 169 165 155 157 165 147 143 157 128 145 153 164
163 170 174 181 184 183 182 180 176 172 179 183 174 157 110 76 106 119 106 107 115 128 137 150 163 165 165 160 156 162 166 161 161 161 173 160 158 172 164 151 152 159 173
168 172 177 183 187 186 183 181 178 180 189 187 180 167 144 99 98 105 105 108 124 122 130 143 154 159 158 157 153 151 151 147 155 169 169 163 165 165 164 157 155 164 159
174 179 181 185 189 189 185 184 183 186 190 188 182 176 164 133 111 107 85 100 119 127 127 146 146 146 149 145 145 152 158 149 147 148 145 149 154 155 159 156 160 160 158
182 183 186 189 191 190 187 188 188 189 191 188 184 182 170 157 128 124 104 85 114 127 132 134 145 141 141 132 134 139 139 143 161 155 147 148 149 150 156 169 167 164 180
186 189 191 192 193 189 189 191 191 189 192 189 187 185 177 164 150 136 121 109 119 138 125 149 150 151 139 139 137 124 117 115 122 134 134 133 141 141 143 144 135 138 160
194 193 192 194 196 189 188 192 194 189 193 194 192 187 181 169 159 145 127 118 117 139 99 141 160 170 148 144 153 144 119 123 118 128 133 144 150 133 129 128 125 122 130
199 205 199 196 195 191 188 191 196 191 195 198 196 191 183 175 168 156 140 128 123 132 126 100 161 168 148 154 145 140 131 130 138 143 136 124 128 144 133 129 126 129 132
208 204 197 194 195 191 191 191 197 195 196 198 199 196 188 183 176 170 155 141 132 120 123 96 120 149 147 151 151 145 136 137 130 129 129 126 123 132 128 131 137 140 142
207 203 196 195 193 191 191 193 198 201 194 196 200 200 195 189 183 176 168 155 148 135 121 124 122 145 158 153 159 154 145 146 142 132 143 134 135 140 136 133 134 140 140
204 206 196 194 192 192 193 196 201 198 195 195 200 202 200 193 188 183 175 169 162 157 140 131 137 138 143 166 167 171 162 160 152 151 143 138 141 141 141 139 141 147 155
200 202 198 193 193 194 195 199 202 196 195 197 199 204 201 200 194 191 187 182 176 176 168 154 146 149 154 149 160 185 187 181 175 166 159 154 152 151 153 155 156 154 152
210 200 196 197 196 197 197 200 201 196 194 196 199 203 204 201 198 198 199 197 192 186 185 176 169 162 155 158 160 160 161 168 177 175 177 176 170 170 173 178 180 179 180
215 207 205 202 201 199 199 199 200 199 197 196 198 202 204 204 203 203 204 207 207 202 192 191 187 182 176 168 166 168 167 169 175 182 188 189 186 185 188 192 196 197 188
217 213 211 205 204 202 202 201 203 201 201 197 198 202 203 203 206 206 207 209 208 204 200 199 199 193 189 187 181 177 182 189 194 197 202 204 204 203 203 206 207 205 201